Location: Calmejanne
(44.7523°N, 1.9418°E)
Time: 20:05:55
(UTC+00:00)

NOSS 3-4 (A) - Pass Details

Date: 14 May 2026
Orbit: 769 x 1442 km, 63.4° (Epoch: 10 January)

Event Time Altitude Azimuth Distance (km) Brightness Sun altitude
Rises 21:25:11 0° 322° (NW) 3,696 8.2 -18.5°
Reaches altitude 10° 21:27:37 10° 324° (NW) 2,832 7.2 -18.8°
Maximum altitude 21:34:25 78° 51° (NE) 1,190 3.9 -19.5°
Enters shadow 21:38:39 30° 134° (SE) 2,057 4.6 -19.9°
